Theta_e
278 279 279 280 282 283 283 284 282 278 280 286 290 299 296 297 299 300 303 316 319 322 324 325 325 326 327 327 328 328 328 326 326 326 326 325 324 325
278 278 279 280 280 282 283 283 284 283 280 285 286 289 293 297 300 302 305 304 311 320 321 321 322 323 324 324 325 325 325 325 326 327 327 326 324 325
277 277 277 279 279 279 280 281 282 282 279 282 286 288 289 290 293 295 299 301 303 315 320 320 321 321 321 322 322 323 323 323 324 326 326 325 325 324
276 276 276 279 278 279 279 279 281 282 281 280 282 284 285 288 291 292 295 300 301 303 316 319 320 320 319 320 320 320 320 320 321 322 323 323 324 324
276 276 276 277 277 277 278 278 280 281 281 281 281 284 285 287 288 291 292 294 299 303 307 317 318 319 319 319 318 318 318 317 317 318 319 320 321 322
277 277 277 278 278 278 278 278 279 279 280 280 280 281 282 284 286 286 288 295 295 302 306 316 317 317 318 318 317 315 315 315 317 317 316 316 317 319
278 279 280 281 283 283 282 281 281 280 279 279 280 281 281 282 283 286 287 288 290 295 301 304 318 318 318 316 316 313 313 314 315 315 316 315 315 316
279 279 279 281 281 284 285 285 284 282 281 281 281 281 281 282 284 284 285 285 284 293 295 293 297 315 319 319 316 314 312 313 314 314 314 314 314 314
278 278 279 280 281 279 282 283 284 285 285 283 281 282 283 284 285 284 284 284 284 289 291 288 293 294 308 319 314 313 312 312 313 313 313 313 312 313
277 277 277 278 279 280 280 280 280 280 281 281 281 281 282 283 283 284 284 285 286 288 291 286 291 292 298 311 313 312 312 311 311 312 312 311 311 311
278 278 279 279 282 284 281 280 280 281 285 286 287 287 288 288 288 286 283 282 281 283 288 288 289 291 295 297 315 311 312 312 310 311 312 311 310 310
278 278 281 281 283 284 281 280 279 281 282 283 283 284 286 285 287 285 285 283 283 282 286 285 286 291 290 301 311 317 314 311 311 311 311 311 310 314
277 278 278 282 283 284 284 281 280 282 282 281 281 281 282 283 284 284 285 285 283 283 287 288 286 289 290 293 297 315 315 315 313 312 310 310 309 311
277 278 279 282 283 283 283 285 286 285 283 282 282 282 281 282 283 284 285 286 287 286 287 288 285 287 286 286 288 296 314 315 314 313 313 311 308 308
279 280 282 282 283 283 283 283 283 280 280 279 278 279 280 282 284 284 285 285 285 286 288 288 287 288 288 286 286 289 290 309 313 312 313 312 310 310
279 278 281 281 281 280 279 278 278 278 277 276 276 277 279 280 280 281 281 282 281 282 285 287 287 288 286 288 290 289 291 290 308 311 311 311 310 310
280 278 276 275 274 274 275 275 276 276 275 276 275 276 276 277 278 279 280 280 279 279 281 284 286 287 288 288 288 290 290 292 297 308 307 306 307 308
276 272 271 271 271 272 272 273 274 275 274 275 275 275 275 276 276 277 278 278 278 279 280 282 283 284 285 288 291 289 292 292 296 302 304 303 302 303
269 269 268 269 269 270 271 272 272 273 275 274 274 274 275 275 276 276 277 277 277 278 279 281 282 282 279 282 290 294 290 292 295 295 300 300 296 298
267 267 267 268 269 269 270 271 272 272 273 273 273 274 275 276 275 275 276 276 276 277 278 280 281 282 281 281 286 292 293 294 295 295 289 285 288 293
266 267 268 268 269 269 270 271 271 271 272 272 272 274 276 275 275 276 276 278 278 276 276 278 281 287 285 285 284 288 288 291 298 294 289 290 285 285
266 267 268 268 269 269 270 270 271 271 271 272 274 275 275 275 275 275 276 275 275 277 277 279 281 283 284 283 282 286 291 286 290 292 292 290 288 286
266 267 267 268 269 269 270 270 270 271 272 272 275 275 275 274 275 276 276 276 276 276 277 278 280 282 283 283 284 286 287 289 287 285 284 289 290 290
Wind_Speed
9 9 9 9 9 9 9 10 10 15 17 9 11 10 14 14 18 17 14 23 27 30 32 32 32 30 29 31 31 30 30 29 29 29 28 27 26 26
9 10 10 9 10 9 9 10 11 12 18 11 12 14 14 15 17 17 16 22 27 30 30 31 28 30 30 30 31 29 27 27 29 30 30 29 28 27
11 12 14 13 10 10 10 11 11 11 16 16 15 14 16 18 18 15 16 16 16 28 30 30 30 29 29 31 32 31 30 30 30 31 31 31 29 29
13 13 14 11 14 13 10 14 13 13 13 20 19 15 17 16 18 19 15 13 15 25 28 30 31 32 29 32 33 33 32 31 30 31 31 30 30 30
14 15 15 14 15 12 13 13 12 12 13 14 15 14 14 12 14 14 15 17 15 26 29 32 32 32 31 32 33 34 33 31 30 29 29 30 30 30
15 16 16 16 17 16 15 16 15 14 13 13 13 14 13 12 12 13 14 10 14 14 19 21 27 32 31 33 34 35 34 33 33 32 31 30 29 29
16 16 17 20 28 24 14 14 15 14 13 14 13 12 13 11 11 9 13 12 16 14 14 14 12 14 17 27 27 33 34 35 35 33 32 31 30 29
14 14 15 23 22 29 31 32 26 17 17 15 15 15 16 15 12 11 12 12 16 7 7 15 11 13 14 15 27 30 32 36 37 35 33 32 31 30
16 15 15 13 22 17 23 30 29 33 32 21 19 16 13 11 12 14 14 14 16 12 12 17 11 14 16 13 25 30 30 33 35 35 35 34 32 32
16 17 17 18 17 20 18 18 18 19 20 16 18 19 17 16 17 16 17 19 18 12 11 18 12 14 13 17 27 31 33 33 35 35 34 33 33 32
15 17 16 17 23 30 20 19 19 19 22 32 34 35 35 33 28 14 14 14 16 13 10 13 14 14 13 15 15 32 36 37 36 37 36 34 34 33
15 16 25 24 30 28 19 16 17 15 13 15 15 20 24 21 31 23 16 17 16 17 12 16 14 10 11 8 14 15 18 34 37 36 36 34 33 17
12 11 11 27 31 31 30 18 19 20 22 19 17 15 15 16 14 15 18 16 15 18 13 13 12 11 7 10 8 13 15 15 18 21 33 34 33 28
13 13 15 28 32 34 30 32 35 31 14 13 13 13 12 13 14 15 19 17 16 21 14 15 13 12 12 14 15 13 12 14 14 15 16 22 31 33
13 20 34 34 35 25 27 31 31 15 13 13 14 15 14 13 13 13 15 18 20 22 16 20 16 14 13 15 12 14 13 10 12 12 14 14 15 13
20 17 20 23 28 24 21 15 11 12 12 13 14 14 13 12 13 13 14 14 15 17 17 20 20 18 16 16 13 15 14 13 8 12 12 12 13 13
24 11 11 11 11 12 11 12 11 11 12 12 13 13 14 13 14 12 14 14 17 17 15 14 16 18 18 20 15 14 15 15 15 13 12 12 12 14
12 10 11 11 12 13 13 13 12 16 13 13 14 14 15 14 14 13 14 15 17 17 16 15 13 12 14 18 28 17 13 13 15 14 11 13 11 10
8 10 11 12 12 13 13 13 14 13 15 14 14 15 15 15 19 15 15 15 17 18 17 15 14 15 16 17 13 33 19 16 15 11 10 9 7 10
8 11 12 12 13 13 13 14 14 14 14 15 15 16 17 16 16 17 16 18 18 18 17 16 16 16 17 19 14 13 35 18 15 11 4 2 4 8
12 12 12 13 14 14 14 14 16 16 17 16 17 17 16 16 18 18 18 28 28 19 19 18 17 28 15 12 14 11 6 22 18 14 5 6 4 4
12 13 14 14 15 15 15 15 15 18 18 17 18 16 17 17 18 19 18 19 20 19 19 15 15 15 17 17 17 20 10 4 6 6 5 4 9 10
13 14 14 15 15 16 16 16 18 18 18 20 18 18 18 17 18 18 19 19 19 19 20 16 15 16 18 17 21 16 9 12 8 6 3 4 4 7
Wind_Direction
285 284 282 283 280 278 278 276 284 294 291 291 313 334 327 317 309 317 306 291 224 225 225 222 216 218 211 211 210 210 207 206 208 207 204 207 207 212
282 278 279 282 284 281 280 279 270 270 279 289 283 292 294 302 305 311 313 289 297 227 225 226 218 216 206 210 207 206 206 207 204 206 206 206 205 209
284 280 276 276 276 276 274 271 268 263 269 285 283 289 289 294 298 300 299 305 298 266 223 226 220 214 205 203 206 204 203 204 206 207 207 205 206 208
282 278 275 276 274 273 271 271 268 267 273 280 288 291 286 291 295 302 297 288 290 290 241 226 226 218 207 203 201 203 205 206 206 206 208 207 208 208
278 276 275 273 272 270 267 268 269 268 267 271 280 288 291 295 295 290 290 290 287 281 294 224 224 223 210 206 204 202 204 203 203 204 206 208 208 209
272 270 271 268 267 266 265 264 262 262 263 265 267 276 281 287 280 289 292 288 294 292 290 239 219 222 218 209 206 204 203 202 204 205 203 205 209 208
274 270 268 265 267 264 259 258 256 254 255 259 258 257 272 280 280 294 290 298 288 309 292 281 225 219 221 221 214 207 204 204 205 206 207 206 207 208
281 285 278 282 282 281 279 275 271 268 264 264 269 266 265 273 275 275 282 290 294 277 326 312 328 279 216 212 214 212 208 206 207 205 206 207 207 208
281 281 279 274 281 278 277 278 280 277 273 276 276 275 279 276 281 280 276 273 275 285 300 293 298 296 302 217 210 209 206 208 211 208 208 209 208 209
278 276 274 274 270 271 267 264 258 258 256 260 263 267 266 268 269 272 271 274 277 274 266 272 287 276 281 290 206 206 207 205 210 210 207 205 208 208
278 275 272 272 271 275 272 268 263 258 258 259 261 262 261 258 257 266 258 260 266 269 258 264 275 275 272 273 264 202 205 207 206 210 213 209 207 210
281 278 278 281 282 286 283 281 281 278 273 269 267 268 271 268 267 262 260 259 264 274 256 253 271 277 286 261 274 213 208 208 207 210 211 208 207 210
283 288 283 286 287 287 284 276 272 272 269 267 262 259 255 250 245 243 246 247 255 259 253 264 273 283 291 309 316 258 200 207 206 210 212 208 205 204
291 285 281 284 287 286 284 279 280 282 277 270 264 254 248 247 245 240 241 241 244 251 249 246 255 251 260 269 280 300 252 201 200 206 203 207 209 206
287 290 296 291 292 296 294 288 288 281 274 265 260 259 258 260 260 249 244 245 251 252 245 242 244 247 246 253 261 269 284 271 199 198 196 199 200 203
296 285 285 302 301 293 294 289 277 271 267 265 265 268 270 263 255 250 248 249 249 253 241 240 241 238 247 251 252 260 264 268 249 201 195 202 200 203
302 310 307 304 298 292 287 282 280 275 267 266 266 267 265 261 255 249 245 249 248 251 245 240 238 234 239 246 253 242 251 259 274 223 193 196 198 198
321 311 298 294 290 289 288 286 279 279 272 268 265 264 262 258 256 251 248 242 243 245 245 240 240 235 240 241 227 243 241 244 253 259 197 197 197 200
301 295 289 286 289 288 285 283 281 275 274 267 265 262 258 255 257 252 246 241 244 243 239 236 233 227 233 246 231 213 234 228 238 241 211 199 181 204
290 286 288 290 288 285 282 280 278 277 273 269 265 265 258 253 256 250 241 240 241 238 239 231 229 228 225 230 232 218 214 222 213 223 205 72 55 87
293 292 290 289 286 283 280 280 275 274 273 269 267 256 259 258 253 248 240 236 237 235 237 232 227 228 236 242 249 254 205 214 213 198 164 186 147 139
294 294 292 291 288 286 284 282 279 277 271 269 259 258 259 254 252 247 240 236 232 234 232 230 223 223 227 220 232 239 219 179 205 129 105 119 173 181
293 293 292 290 289 287 284 280 278 273 273 266 261 262 258 255 248 244 241 232 226 225 225 223 218 219 224 221 223 223 203 183 160 144 74 65 85 104